Regional Weather Roundup
Issued by NWS

Home | Current Version | Previous Version | Graphics & Text | Print | Product List | Glossary On
Versions: 1 2 3 4 5 6 7 8 9 10 11 12 13 14 15 16 17 18 19 20 21 22 23 24 25 26 27 28 29 30 31 32 33 34 35 36 37 38 39 40 41 42 43 44 45 46 47 48 49 50
000
ASUS45 KABQ 261810
RWRNM
NEW MEXICO REGIONAL WEATHER ROUNDUP
NATIONAL WEATHER SERVICE ALBUQUERQUE NM
1200 PM MDT TUE MAY 26 2015

NOTE: "FAIR" MEANS FEW OR NO CLOUDS BELOW 12,000 FEET AGL WITH NO
       SIGNIFICANT WEATHER OR OBSTRUCTIONS TO VISION.

      THIS PRODUCT IS RELEASED AS TWO VERSIONS.  ONE VERSION NEAR
      THE TOP OF THE HOUR CONTAINING PRELIMINARY DATA FROM ALBUQUERQUE
      AND OTHER STATIONS.  A FINAL VERSION WITH ADDITIONAL DATA IS
      ISSUED ABOUT 10 MINUTES AFTER THE HOUR.

NMZ501-503-504-510>518-261900-
NORTHWEST PLATEAU/NORTHCENTRAL MOUNTAINS

CITY           SKY/WX    TMP DP  RH WIND       PRES   REMARKS
FARMINGTON     SUNNY     67  40  37 CALM      30.12F
6HR MIN TEMP:  43; 6HR MAX TEMP:  67;

LOS ALAMOS     MOSUNNY   60  42  50 SE3       30.21S
SANTA FE       MOSUNNY   65  39  38 S7        30.15F
6HR MIN TEMP:  39; 6HR MAX TEMP:  66;

TAOS           SUNNY     61  36  39 CALM      30.19S
ANGEL FIRE     FAIR      56  33  40 SW9G17    30.23S

$$
NMZ402-403-502-505>509-261900-
WESTCENTRAL MOUNTAINS/SOUTHWEST MOUNTAINS

CITY           SKY/WX    TMP DP  RH WIND       PRES   REMARKS
GALLUP         MOSUNNY   64  42  44 W8        30.18F
6HR MIN TEMP:  34; 6HR MAX TEMP:  65;

GRANTS         CLOUDY    66  33  29 CALM      30.19S
SILVER CITY      N/A     73  32  21 S8        30.16F

$$
NMZ407-409-411-412-261900-
SOUTHERN DESERTS

CITY           SKY/WX    TMP DP  RH WIND       PRES   REMARKS
LORDSBURG      FAIR      77  32  19 CALM      30.08F
DEMING         SUNNY     78  33  19 VRB7      30.10F
6HR MIN TEMP:  45; 6HR MAX TEMP:  78;

LAS CRUCES     SUNNY     77  35  21 SW7       30.11F
ALAMOGORDO     SUNNY     77  37  24 W8        30.10S
T OR C         SUNNY     74  38  27 VRB3      30.10F
6HR MIN TEMP:  53; 6HR MAX TEMP:  74;


$$
NMZ519>523-261900-
CENTRAL VALLEYS/CENTRAL HIGHLANDS

CITY           SKY/WX    TMP DP  RH WIND       PRES   REMARKS
ALBUQUERQUE    PTSUNNY   66  44  45 CALM      30.15S
6HR MIN TEMP:  47; 6HR MAX TEMP:  67;

DOUBLE EAGLE   MOSUNNY   66  41  39 NW9       30.17S
MORIARTY ARPT  FAIR      67  35  29 NW8       30.16F
6HR MIN TEMP:  43; 6HR MAX TEMP:  68;

CLINES CORNERS SUNNY     65  36  34 NW12G22   30.17S
6HR MIN TEMP:  44; 6HR MAX TEMP:  65;

BELEN          FAIR      68  46  45 SE7       30.14F
6HR MIN TEMP:  45; 6HR MAX TEMP:  68;

SOCORRO        FAIR      70  41  34 SE7       30.13S
6HR MIN TEMP:  47; 6HR MAX TEMP:  70;


$$
NMZ524>526-539-540-261900-
SOUTHCENTRAL MOUNTAINS

CITY           SKY/WX    TMP DP  RH WIND       PRES   REMARKS
RUIDOSO        SUNNY     66  34  30 NW16      30.21F

$$
NMZ527>531-261900-
NORTHEAST HIGHLANDS/NORTHEAST PLAINS

CITY           SKY/WX    TMP DP  RH WIND       PRES   REMARKS
LAS VEGAS      MOSUNNY   62  38  40 MISG      30.16R
6HR MIN TEMP:  41; 6HR MAX TEMP:  64;

RATON          SUNNY     65  38  36 VRB5      30.10F
6HR MIN TEMP:  43; 6HR MAX TEMP:  66;

CLAYTON        SUNNY     68  48  48 VRB3      30.08S
6HR MIN TEMP:  49; 6HR MAX TEMP:  69;


$$
NMZ532>537-261900-
EASTCENTRAL PLAINS

CITY           SKY/WX    TMP DP  RH WIND       PRES   REMARKS
TUCUMCARI      SUNNY     72  49  44 CALM      30.04R
6HR MIN TEMP:  51; 6HR MAX TEMP:  73;

CANNON AFB     NOT AVBL
CLOVIS AIRPORT SUNNY     72  50  46 NW6       30.06S

$$
NMZ028-029-538-261900-
SOUTHEAST PLAINS

CITY           SKY/WX    TMP DP  RH WIND       PRES   REMARKS
ROSWELL        MOSUNNY   82  41  23 MISG      30.03S
6HR MIN TEMP:  51; 6HR MAX TEMP:  82;

ARTESIA        SUNNY     79  39  24 VRB7      30.05S
CARLSBAD       SUNNY     82  45  27 VRB5      30.02F
6HR MIN TEMP:  51; 6HR MAX TEMP:  83;

HOBBS          SUNNY     79  41  25 S12       30.07R


$$


USA.gov is the U.S. government's official web portal to all federal, state and local government web resources and services.